Regional Weather Roundup
Issued by NWS

Home | Current Version | Previous Version | Text Only | Print | Product List | Glossary Off
Versions: 1 2 3 4 5 6 7 8 9 10 11 12 13 14 15 16 17 18 19 20 21 22 23 24 25 26 27 28 29 30 31 32 33 34 35 36 37 38 39 40 41 42 43 44 45 46 47 48 49 50

000
ASUS45 KBOU 031810
RWRCO

WEATHER ROUNDUP FOR COLORADO
NATIONAL WEATHER SERVICE DENVER/BOULDER CO
1200 PM MDT FRI JUL 03 2015

NOTE: "FAIR" INDICATES FEW OR NO CLOUDS BELOW 12000 FEET WITH NO
SIGNIFICANT WEATHER AND/OR OBSTRUCTIONS TO VISIBILITY.

COZ001>005-013-030-031-031900-
...NORTHWEST COLORADO...

CITY           SKY/WX    TMP DP  RH WIND       PRES   REMARKS
CRAIG          SUNNY     85  43  22 CALM      30.19S
HAYDEN         SUNNY     81  41  24 N5        30.21F
MEEKER         SUNNY     84  44  24 MISG      30.19F
MOUNT WERNER   NOT AVBL
STEAMBOAT SPGS SUNNY     78  43  28 CALM      30.23F
WALDEN         SUNNY     73  36  25 W5        30.34F
$$

COZ006>008-011-031900-
...WEST CENTRAL VALLEYS...

CITY           SKY/WX    TMP DP  RH WIND       PRES   REMARKS
GRAND JUNCTION SUNNY     87  48  25 SW5       30.06F
MONTROSE       SUNNY     88  48  25 VRB5      30.16F
EAGLE          MOSUNNY   82  43  24 CALM      30.22F
RIFLE          MOSUNNY   87  46  24 NW9       30.12F
DELTA          SUNNY     91  46  21 SE6       30.12F
NUCLA          SUNNY     86  45  23 SW8G20    30.21F
$$

COZ017>023-064>068-031900-
...SOUTHWEST COLORADO...

CITY           SKY/WX    TMP DP  RH WIND       PRES   REMARKS
DURANGO        MOSUNNY   78  50  37 VRB3      30.26F
CORTEZ         SUNNY     83  54  36 S8G17     30.20F
PAGOSA SPRINGS MOSUNNY   74  47  38 NE5       30.36R
TELLURIDE      SUNNY     68  44  42 CALM      30.45F
WOLF CREEK PAS NOT AVBL
$$

COZ009-010-012-014-032>034-037-058>063-031900-
...CENTRAL COLORADO...

CITY           SKY/WX    TMP DP  RH WIND       PRES   REMARKS
ASPEN          MOSUNNY   79  45  29 N12       30.29F
BUENA VISTA    MOSUNNY   71  47  41 SE5       30.32F
COPPER MTN     MOSUNNY   64  32  29 W26G37    30.63S
BERTHOUD PASS  FAIR      52  43  71 MISG      30.68R
COTTONWOOD PAS NOT AVBL
GUNNISON       SUNNY     72  50  46 SW5       30.36F
KREMMLING      SUNNY     79  37  22 CALM      30.29F
LEADVILLE      PTSUNNY   69  38  32 VRB5      30.44F
MONARCH PASS   SUNNY     54  43  66 SW14G20   30.74F
SALIDA         MOSUNNY   75  52  45 SE7       30.37F
SUNLIGHT       MOSUNNY   68  48  49 CALM      30.58S
WILKERSON PASS PTSUNNY   57  43  58 S3        30.60F
$$

COZ069>075-031900-
...SAN LUIS VALLEY/SANGRE DE CRISTO MOUNTAINS...

CITY           SKY/WX    TMP DP  RH WIND       PRES   REMARKS
ALAMOSA        LGT RAIN  63  54  72 NE14      30.33F
LA VETA PASS   RAIN      59  50  72 MISG      30.52S
SAGUACHE       MOSUNNY   64  48  55 W3        30.38F
$$

COZ035-036-038>040-031900-
...NORTHERN COLORADO FRONT RANGE...

CITY           SKY/WX    TMP DP  RH WIND       PRES   REMARKS
DENVER INTL AP MOSUNNY   75  56  51 SE3       30.18F
DMNS CITY PARK   N/A     77  55  47 E6        30.18F
AURORA         MOSUNNY   74  57  56 VRB2      30.21F
FRONT RANGE AP MOSUNNY   77  59  53 CALM      30.20F
ERIE MUNI ARPT SUNNY     76  55  47 SW3       30.17F
BOULDER MUN AP MOSUNNY   73  59  60 E3        30.18F
CENTENNIAL     MOSUNNY   73  57  57 VRB3      30.21F
BROOMFIELD     MOSUNNY   75  57  53 NW5       30.21F
FORT COLLINS   MOSUNNY   75  57  53 SE7       30.17F
LONGMONT       SUNNY     79  56  44 CALM      30.18F
$$

COZ041-046-047-076>085-087-088-031900-
...PIKES PEAK/PALMER DIVIDE AND SOUTHERN FOOTHILLS...

CITY           SKY/WX    TMP DP  RH WIND       PRES   REMARKS
COLO. SPRINGS  MOSUNNY   75  57  53 S9        30.24F
A. F. ACADEMY  MOSUNNY   73  56  56 S8        30.24F
ELLICOTT       SUNNY    N/A N/A N/A VRB6      30.23F
FALCON         SUNNY     72  54  53 S7        30.30S
FORT CARSON    SUNNY     75  59  58 S8        30.21F
LIMON          MOSUNNY   75  56  51 S3        30.20F
MONUMENT HILL  NOT AVBL
TRINIDAD       MOSUNNY   82  56  40 VRB6      30.19F
$$

COZ042>045-048>051-090-091-031900-
...NORTHEAST COLORADO...

CITY           SKY/WX    TMP DP  RH WIND       PRES   REMARKS
GREELEY ARPT   MOSUNNY   79  61  53 SW3       30.16F
AKRON          MOSUNNY   76  59  55 NE5       30.16F
BURLINGTON     PTSUNNY   80  52  37 VRB3      30.14S
WRAY           PTSUNNY   84  56  37 SE9       30.11S
STERLING       SUNNY     79  59  50 S6          N/A
HOLYOKE        MOSUNNY   84  54  34 NE6       30.10F
FORT MORGAN    SUNNY     79  53  39 S8        30.15F
$$

COZ086-089-092>099-031900-
...SOUTHEAST COLORADO...

CITY           SKY/WX    TMP DP  RH WIND       PRES   REMARKS
PUEBLO         SUNNY     83  57  41 CALM      30.13F
LA JUNTA       SUNNY     84  59  42 NE7       30.11F
LAMAR          SUNNY     82  60  47 CALM      30.08F
SPRINGFIELD      N/A     85  54  34 SW6       30.11F
$$


USA.gov is the U.S. government's official web portal to all federal, state and local government web resources and services.